Temperature
14 14 14 14 14 14 14 14 14 14 14 14 14 14 14 14 13 13 13 13 13 13 13 13 13 13 13 13 12 12 12 12 12 12 12 12 12 12 12 12 12 11 11
14 14 14 14 14 14 14 14 14 14 13 13 13 13 13 13 13 13 13 13 13 13 13 13 13 13 12 12 12 12 12 12 12 12 12 12 12 12 12 11 11 11 11
14 14 14 14 14 14 14 14 14 13 13 13 13 13 13 13 13 13 13 13 13 13 13 13 12 12 12 12 12 11 11 11 12 12 12 12 11 11 11 11 11 11 11
13 14 14 14 14 14 13 13 13 13 13 13 13 13 13 13 13 13 13 13 13 13 12 12 12 12 12 12 11 11 11 11 11 11 11 11 11 11 11 11 11 11 10
13 13 13 13 13 13 13 13 13 13 13 13 13 13 12 12 13 12 12 12 12 12 12 12 12 12 12 11 11 11 11 11 11 11 11 11 11 11 10 10 10 10 10
13 13 13 13 13 13 13 13 13 13 13 13 12 12 12 12 12 12 12 12 12 12 11 11 11 11 11 11 11 11 11 11 11 11 10 10 10 10 10 10 10 10 10
12 12 12 12 12 12 12 12 12 12 12 12 12 12 12 12 12 12 12 11 11 11 11 11 11 11 11 11 11 11 10 10 10 10 10 10 10 10 10 10 10 10 10
12 12 12 12 12 12 12 12 12 12 12 12 12 11 11 11 11 11 11 11 11 11 10 10 10 10 10 10 10 10 10 10 10 10 10 10 9 9 9 9 9 9 9
11 12 12 12 12 12 12 12 12 12 12 12 11 11 10 10 10 11 11 11 10 10 10 10 10 10 10 10 10 10 10 9 9 9 9 9 9 9 9 9 9 9 9
11 11 11 11 11 11 11 11 11 11 11 11 11 11 10 10 10 9 10 10 10 10 9 9 9 9 9 9 9 9 9 9 9 9 9 9 9 9 9 9 9 9 9
10 10 10 11 11 11 11 11 11 11 10 10 10 10 10 10 9 9 9 9 9 9 9 9 9 9 9 9 8 9 8 8 8 8 8 8 8 8 8 9 9 9 8
10 10 10 10 10 10 10 10 10 10 10 10 9 9 9 9 9 8 8 8 8 9 9 8 8 8 8 8 8 8 8 8 8 8 8 8 8 8 8 8 8 8 8
9 9 9 9 10 10 10 10 10 10 9 9 9 9 9 9 8 8 8 7 7 8 8 8 8 8 8 8 8 7 7 7 7 7 7 8 8 8 8 8 8 8 8
8 9 9 9 9 9 9 9 9 9 9 9 8 8 8 8 8 7 7 7 6 6 7 7 7 7 7 7 7 7 7 7 7 7 7 7 7 7 8 8 8 7 7
8 8 8 8 8 8 8 8 8 8 8 8 8 8 8 7 7 7 6 6 6 5 5 6 6 6 7 7 6 7 7 7 7 7 7 7 7 7 7 7 7 7 7
8 7 7 8 8 8 8 8 8 7 7 7 7 7 7 6 6 6 6 6 5 5 5 5 6 6 6 6 6 6 6 6 6 6 6 6 6 6 7 7 7 7 7
7 7 7 7 7 7 7 7 7 7 7 7 7 6 6 6 6 6 5 5 5 5 4 5 5 5 5 6 6 6 6 6 6 6 6 6 6 6 6 6 6 6 6
7 7 7 7 7 7 7 7 7 7 6 6 6 6 5 5 5 5 5 5 4 4 4 4 4 4 5 5 5 5 5 5 6 6 5 5 5 5 5 5 6 6 6
6 6 6 6 6 6 6 6 6 6 6 6 5 5 5 5 5 4 4 4 4 4 4 4 4 4 4 4 4 4 5 5 5 5 5 5 5 5 5 5 5 5 5
6 6 6 6 5 5 5 5 5 5 5 5 5 4 4 4 4 4 4 4 4 3 3 3 3 3 3 4 4 4 4 4 4 4 4 4 4 4 4 4 4 4 4
5 5 5 5 5 5 5 5 5 5 5 4 4 4 4 4 4 3 3 3 3 3 3 3 3 3 3 3 3 3 3 3 4 3 3 3 3 3 3 4 4 4 4
5 5 5 5 5 4 4 4 4 4 4 4 4 3 3 3 3 3 3 3 3 3 3 3 2 2 2 2 2 2 2 3 2 3 3 3 3 3 3 3 3 3 3
5 4 4 4 4 4 4 4 4 4 4 3 3 3 3 3 3 3 3 3 3 3 2 2 2 2 2 2 2 2 2 2 2 2 2 2 2 2 2 3 3 3 3
4 4 4 4 4 4 4 4 4 4 3 3 3 2 2 2 2 2 2 2 2 2 2 2 2 2 2 2 2 2 2 2 2 2 2 1 1 1 2 2 2 2 2
3 3 3 3 3 3 3 3 3 3 3 3 2 2 2 2 2 2 2 2 2 2 2 2 2 2 2 2 2 2 2 1 1 1 1 1 1 1 1 1 1 2 2
3 3 3 3 3 3 3 2 2 2 2 2 2 2 2 1 1 1 1 2 1 1 2 2 1 2 2 1 1 1 1 1 1 0 0 0 0 0 0 1 1 1 1
Wind_Speed
5 4 5 7 8 9 8 6 6 6 6 6 7 6 5 6 5 4 7 10 9 7 7 7 7 7 8 8 8 8 8 8 8 8 8 8 8 8 8 8 8 8 8
5 5 5 5 5 7 7 7 6 5 4 3 4 5 5 5 5 4 6 9 10 9 8 8 9 9 9 9 10 9 9 10 10 10 10 10 9 9 9 9 9 9 8
6 4 4 5 4 7 6 5 5 4 3 3 4 4 3 3 4 5 6 8 9 10 10 10 10 10 10 11 11 11 10 10 10 11 11 11 10 10 10 10 10 9 9
6 4 4 4 5 6 4 4 4 4 3 3 3 3 2 2 4 5 5 6 8 8 10 11 11 11 11 11 12 11 11 11 11 11 12 12 12 12 11 11 11 10 10
4 3 4 3 4 4 4 4 4 3 3 3 3 3 3 3 4 4 3 5 7 8 8 10 11 11 11 12 12 12 12 12 12 12 12 13 13 13 13 12 12 11 11
2 3 3 3 3 3 3 4 4 3 3 3 3 3 4 4 4 3 3 3 5 6 6 7 8 10 12 12 13 13 13 13 13 13 13 14 14 14 13 13 13 12 12
2 2 3 3 3 3 3 3 3 3 3 2 1 2 3 4 4 3 2 2 3 5 6 6 6 7 9 12 13 14 14 14 15 15 15 15 15 15 14 14 14 13 13
2 2 2 3 3 3 3 3 3 3 2 2 2 1 2 3 4 5 4 4 4 3 4 6 7 7 7 7 10 13 14 15 16 16 16 16 16 16 16 15 15 14 14
2 2 2 2 3 3 4 4 4 4 3 3 2 2 2 3 2 3 4 4 3 3 3 4 6 7 7 7 8 11 14 15 17 17 17 17 17 17 17 16 16 15 14
2 2 2 1 2 3 3 3 3 3 3 4 3 2 2 1 2 3 3 4 4 4 4 4 5 6 7 7 9 11 13 15 17 18 18 18 18 18 18 17 16 16 14
2 2 1 1 1 1 2 2 3 3 3 4 3 2 3 2 3 3 4 4 4 5 5 5 4 5 7 8 8 10 12 15 17 18 19 19 19 18 18 17 17 16 14
1 1 1 1 1 1 1 2 3 3 3 3 3 3 2 2 2 2 4 5 5 5 5 5 5 5 6 7 9 11 13 14 16 17 19 18 18 17 17 17 16 16 14
1 1 0 0 1 0 1 1 2 2 3 3 3 3 3 4 3 3 4 5 5 4 3 4 4 4 5 6 8 11 12 14 15 16 17 16 15 14 14 14 15 14 14
0 1 0 0 0 0 0 1 1 2 2 2 3 3 3 3 3 3 3 4 5 5 3 4 3 4 4 6 8 10 10 12 14 14 15 14 12 11 12 13 13 12 11
0 1 0 1 0 0 0 0 1 1 1 2 2 3 3 3 3 3 3 3 5 6 7 4 3 3 4 5 8 8 9 12 13 13 13 12 11 10 10 10 10 10 10
1 1 1 1 0 0 0 1 1 1 2 2 2 3 4 3 4 4 4 4 4 6 7 5 4 4 5 6 9 7 9 11 12 11 10 9 9 7 7 7 7 7 6
2 2 1 1 0 0 1 1 1 2 2 2 2 3 4 4 3 3 3 4 5 5 8 6 4 4 5 5 6 7 8 8 8 9 8 8 8 7 6 5 6 6 6
2 2 1 1 1 1 1 1 2 2 2 3 3 3 4 4 4 4 4 5 5 5 7 9 6 4 5 5 5 5 5 6 6 8 8 7 7 5 4 4 4 5 5
1 1 1 1 1 1 1 1 1 2 2 3 3 3 4 5 5 5 5 5 5 6 6 6 6 4 4 4 4 4 4 4 4 5 6 6 6 5 3 3 4 4 5
1 1 1 1 1 1 1 2 2 2 2 3 3 3 4 4 5 6 5 5 5 6 6 5 5 4 4 4 3 3 4 3 4 3 3 4 5 5 4 3 3 4 5
2 1 2 2 1 1 2 2 2 2 2 3 3 4 4 5 6 6 6 5 5 6 6 6 5 4 4 3 3 3 4 3 3 1 2 3 3 3 4 4 3 3 4
2 2 1 1 1 2 3 4 3 2 2 3 4 4 5 5 5 7 8 7 7 6 6 6 6 6 6 4 3 3 3 2 3 2 2 3 2 2 2 3 2 1 2
2 1 1 1 1 2 3 4 4 2 2 3 4 4 5 5 6 6 7 8 7 8 8 7 7 7 6 4 4 4 4 4 4 3 1 2 2 2 2 2 1 1 1
1 1 1 1 1 3 5 5 5 3 3 3 4 4 5 5 5 6 6 6 5 5 6 6 6 6 5 4 5 5 5 4 3 1 0 2 2 2 2 1 0 1 1
1 1 1 1 1 3 5 6 5 2 3 4 4 4 5 5 8 8 5 5 6 5 6 6 6 6 5 4 3 2 2 2 2 2 1 0 1 2 2 1 0 1 1
1 1 2 1 1 2 4 6 5 2 3 4 4 4 5 6 8 9 5 5 6 6 5 5 5 5 4 3 3 2 3 2 1 2 1 0 0 1 1 1 1 1 1
Wind_Direction
183 178 177 177 185 185 182 187 195 201 204 205 202 208 218 226 221 195 175 184 194 210 226 239 248 255 258 261 265 266 265 266 270 274 277 279 282 284 286 288 292 294 292
185 184 181 178 182 179 182 190 197 198 201 198 206 209 218 224 221 201 182 194 201 211 226 239 249 256 260 262 265 267 267 266 267 269 272 274 276 278 280 281 284 285 289
182 185 183 180 180 179 184 190 197 195 198 202 215 217 212 221 231 216 195 193 202 214 224 238 249 256 260 262 265 267 268 269 271 271 271 271 272 273 275 278 280 278 280
173 176 181 185 181 181 180 188 190 192 198 200 215 228 226 220 231 229 208 198 200 209 224 237 245 253 259 263 265 267 268 270 272 274 275 271 270 270 271 273 275 275 275
172 169 181 185 175 181 185 193 185 189 199 200 216 226 233 234 234 230 214 206 206 206 212 229 240 250 258 264 265 268 268 271 273 275 276 274 272 272 269 268 272 271 272
168 166 175 178 171 175 182 183 187 194 200 200 222 236 238 235 230 220 221 212 212 211 213 227 235 246 254 261 267 270 270 271 272 272 273 274 274 272 270 268 267 268 267
162 158 177 177 176 181 186 181 183 195 204 189 194 248 258 243 230 217 219 228 224 215 222 227 232 243 251 256 260 266 270 273 274 272 270 270 271 269 267 268 267 266 266
144 163 161 177 174 178 185 188 187 188 193 177 176 200 258 264 244 238 228 227 226 214 225 234 236 240 246 247 255 261 266 272 274 274 271 268 268 266 264 264 265 266 265
119 120 130 157 177 181 190 197 192 189 199 200 178 178 200 238 279 246 231 226 229 240 239 236 240 243 248 249 252 255 260 267 270 273 273 271 267 264 261 261 262 261 265
90 95 108 146 170 180 188 196 190 200 197 209 211 213 214 200 231 270 257 236 247 250 247 258 249 245 247 254 257 258 261 266 269 272 273 273 270 265 260 258 259 260 260
92 96 112 122 147 166 183 197 197 203 208 213 212 218 236 251 234 239 263 262 257 247 245 247 247 243 249 253 257 262 265 266 271 274 275 275 274 268 261 259 257 256 255
131 109 120 148 160 143 171 200 200 202 216 217 222 215 216 225 237 252 263 266 264 255 248 243 242 241 247 255 263 271 272 270 271 273 277 277 274 268 265 262 259 255 252
154 148 158 180 179 188 219 213 202 204 214 222 229 231 231 238 244 253 266 274 276 275 251 243 238 248 260 263 266 269 270 273 273 273 277 280 277 271 269 269 263 258 252
92 103 149 222 92 60 243 203 201 209 215 227 242 239 243 250 252 253 257 271 278 275 259 257 257 245 270 270 270 269 270 273 275 278 277 279 281 279 275 270 266 261 252
93 43 30 26 22 320 300 188 194 219 226 234 244 249 251 252 249 248 251 257 253 271 267 267 276 270 281 279 277 275 274 273 271 271 277 281 280 275 270 268 262 255 248
46 43 40 31 354 292 262 213 218 237 234 245 252 259 258 259 252 245 246 251 252 255 268 270 273 285 288 289 280 279 274 276 270 271 272 278 281 273 268 263 253 244 232
53 49 39 20 29 276 258 227 225 233 241 260 276 268 265 264 256 257 260 256 260 259 267 281 280 283 276 274 283 280 278 272 267 271 274 272 271 268 274 269 248 239 238
55 60 48 32 15 359 312 264 258 261 256 263 269 273 274 278 270 262 261 263 263 268 267 278 287 287 282 268 270 278 291 287 278 272 270 271 272 269 267 259 248 241 236
65 60 62 41 16 347 330 317 299 286 275 272 274 276 279 271 268 265 265 266 267 277 271 273 286 289 289 277 282 285 280 284 292 276 271 268 263 263 262 257 243 247 239
64 53 36 24 2 338 341 326 310 298 288 281 278 277 278 271 269 272 268 265 269 272 279 274 277 285 283 282 267 268 288 289 292 284 289 278 261 250 248 252 249 242 240
33 39 41 32 15 353 335 334 317 307 302 294 286 276 277 277 282 280 274 270 270 269 278 275 273 278 279 283 270 264 275 287 292 280 307 296 267 249 239 237 242 246 238
33 31 33 32 10 340 335 331 322 305 307 299 292 289 283 274 287 294 292 287 280 274 274 273 269 270 268 266 267 269 266 282 281 270 291 291 275 274 248 219 225 244 222
13 358 348 17 343 326 339 339 338 332 315 304 299 299 300 299 295 288 288 288 282 280 272 264 268 267 266 262 260 254 255 261 263 251 253 275 297 293 286 240 198 185 178
339 325 320 331 342 347 356 352 348 336 314 312 313 311 308 311 305 303 297 294 291 286 281 272 264 266 269 261 244 247 252 269 295 268 144 263 294 303 314 277 139 118 123
344 341 346 351 352 346 358 355 354 331 319 318 319 320 319 318 323 319 303 293 294 295 299 297 288 283 285 288 278 260 262 260 286 278 338 317 286 318 329 338 135 83 64
323 333 340 339 337 340 350 348 347 328 320 313 311 313 321 327 329 328 313 296 293 298 308 314 313 311 305 305 306 254 236 233 262 267 276 354 287 9 1 345 24 136 98
Height
1513 1515 1517 1519 1521 1523 1525 1527 1529 1531 1532 1533 1534 1536 1537 1538 1538 1539 1538 1538 1538 1538 1538 1538 1537 1537 1536 1536 1535 1534 1534 1533 1532 1531 1531 1530 1529 1528 1527 1526 1526 1525 1524
1509 1512 1514 1516 1518 1520 1522 1524 1526 1528 1529 1531 1532 1533 1534 1535 1535 1536 1535 1535 1535 1535 1535 1535 1535 1534 1533 1533 1532 1532 1531 1530 1529 1528 1527 1527 1526 1525 1524 1523 1522 1521 1520
1506 1508 1510 1513 1515 1517 1519 1521 1523 1525 1526 1528 1529 1530 1530 1531 1532 1532 1532 1532 1532 1532 1532 1532 1531 1531 1530 1530 1529 1528 1527 1527 1526 1525 1524 1523 1522 1521 1520 1519 1519 1518 1517
1502 1504 1507 1509 1511 1514 1515 1518 1520 1521 1522 1524 1525 1526 1527 1527 1528 1529 1528 1528 1528 1528 1528 1528 1528 1527 1527 1526 1526 1525 1524 1523 1522 1521 1520 1519 1518 1517 1516 1515 1514 1513 1513
1498 1500 1503 1505 1508 1510 1511 1514 1516 1518 1519 1520 1521 1522 1523 1523 1524 1524 1524 1524 1524 1524 1524 1524 1524 1523 1523 1522 1522 1521 1520 1519 1518 1517 1515 1514 1513 1512 1511 1510 1510 1509 1508
1494 1496 1499 1501 1504 1506 1508 1509 1511 1513 1515 1516 1517 1517 1518 1519 1519 1520 1520 1520 1520 1520 1520 1520 1519 1519 1518 1518 1517 1516 1515 1514 1513 1512 1511 1509 1508 1507 1506 1506 1505 1504 1503
1490 1493 1495 1497 1499 1501 1503 1505 1507 1509 1511 1512 1513 1513 1513 1514 1514 1515 1516 1516 1516 1515 1515 1515 1514 1514 1513 1513 1512 1511 1510 1509 1508 1507 1505 1504 1503 1502 1501 1500 1499 1499 1498
1486 1489 1491 1493 1495 1497 1499 1501 1503 1505 1506 1508 1508 1508 1508 1509 1509 1510 1510 1510 1510 1511 1510 1510 1509 1509 1508 1507 1506 1506 1505 1503 1502 1501 1500 1498 1497 1496 1495 1494 1494 1493 1492
1483 1485 1487 1489 1491 1493 1495 1497 1498 1500 1501 1503 1504 1505 1505 1503 1504 1504 1504 1505 1505 1505 1505 1505 1504 1503 1503 1502 1501 1500 1499 1497 1496 1495 1494 1492 1491 1489 1488 1488 1487 1487 1486
1479 1482 1484 1486 1487 1489 1491 1493 1495 1496 1497 1497 1499 1500 1501 1500 1500 1498 1498 1499 1500 1500 1499 1499 1498 1497 1497 1496 1495 1494 1493 1491 1490 1489 1487 1486 1484 1482 1482 1481 1481 1480 1480
1477 1478 1480 1482 1484 1485 1487 1489 1490 1492 1492 1493 1494 1495 1495 1496 1496 1495 1492 1492 1493 1493 1493 1493 1492 1491 1491 1490 1489 1488 1486 1485 1483 1482 1480 1478 1476 1475 1474 1474 1474 1473 1473
1473 1475 1477 1478 1480 1481 1482 1484 1486 1487 1488 1489 1490 1490 1490 1490 1491 1490 1489 1487 1486 1486 1487 1487 1486 1485 1485 1484 1482 1481 1480 1478 1476 1475 1473 1470 1468 1467 1467 1467 1467 1467 1466
1469 1471 1473 1474 1475 1477 1479 1480 1481 1482 1483 1484 1485 1485 1485 1486 1486 1486 1485 1482 1481 1480 1480 1480 1480 1479 1478 1477 1476 1474 1473 1471 1469 1468 1465 1463 1461 1461 1461 1461 1461 1460 1460
1465 1467 1469 1471 1472 1473 1475 1476 1477 1478 1479 1480 1480 1480 1480 1481 1481 1480 1480 1479 1476 1474 1473 1473 1473 1473 1472 1471 1469 1468 1466 1464 1463 1461 1459 1457 1455 1454 1454 1454 1454 1454 1454
1463 1464 1466 1467 1468 1470 1471 1472 1472 1473 1474 1474 1475 1475 1475 1475 1475 1475 1475 1474 1474 1469 1466 1466 1466 1465 1465 1464 1463 1461 1460 1458 1456 1454 1452 1450 1449 1448 1448 1447 1447 1448 1448
1460 1461 1463 1464 1465 1466 1467 1468 1468 1469 1469 1470 1470 1470 1470 1470 1470 1469 1469 1469 1468 1466 1463 1461 1460 1460 1459 1458 1457 1455 1453 1452 1449 1447 1445 1444 1443 1442 1441 1441 1441 1441 1442
1458 1459 1460 1461 1462 1463 1463 1464 1464 1465 1465 1465 1465 1465 1465 1465 1464 1464 1463 1463 1462 1461 1457 1455 1455 1454 1453 1451 1450 1449 1447 1445 1443 1441 1439 1438 1436 1436 1435 1435 1435 1436 1437
1456 1456 1457 1458 1459 1459 1460 1460 1460 1461 1460 1460 1460 1460 1459 1459 1459 1458 1457 1456 1456 1455 1453 1449 1448 1447 1446 1445 1444 1442 1440 1439 1437 1435 1434 1432 1430 1430 1430 1430 1430 1431 1432
1454 1454 1455 1455 1456 1456 1456 1457 1457 1457 1456 1456 1456 1455 1455 1454 1453 1452 1451 1451 1450 1449 1447 1445 1442 1441 1440 1439 1438 1436 1434 1433 1431 1430 1428 1427 1426 1425 1425 1425 1425 1426 1427
1452 1452 1453 1453 1453 1453 1453 1453 1453 1453 1452 1452 1452 1451 1450 1449 1448 1447 1446 1445 1445 1443 1442 1440 1437 1436 1434 1433 1432 1430 1428 1427 1425 1425 1423 1422 1421 1420 1420 1420 1420 1421 1422
1450 1450 1450 1450 1451 1450 1450 1450 1449 1449 1449 1448 1448 1447 1446 1445 1444 1443 1441 1440 1440 1438 1436 1434 1432 1430 1428 1427 1426 1424 1423 1422 1420 1419 1418 1418 1417 1416 1415 1415 1416 1416 1417
1448 1448 1448 1448 1448 1448 1447 1447 1447 1446 1445 1444 1444 1443 1442 1441 1439 1438 1437 1436 1435 1433 1431 1429 1427 1425 1423 1422 1421 1420 1419 1417 1415 1415 1414 1413 1412 1412 1411 1411 1411 1412 1412
1446 1447 1446 1446 1446 1445 1445 1444 1444 1443 1442 1441 1440 1439 1437 1436 1435 1433 1432 1431 1429 1428 1427 1425 1422 1420 1419 1418 1417 1416 1415 1413 1412 1411 1410 1409 1408 1408 1408 1407 1408 1408 1409
1445 1444 1444 1444 1443 1443 1442 1441 1441 1440 1439 1438 1436 1435 1434 1432 1430 1429 1427 1425 1424 1423 1421 1419 1418 1416 1415 1414 1413 1413 1411 1411 1409 1408 1407 1406 1405 1405 1405 1405 1405 1406 1408
1443 1442 1442 1441 1441 1440 1439 1438 1437 1436 1435 1434 1433 1432 1430 1428 1427 1425 1423 1421 1419 1418 1417 1415 1414 1413 1412 1411 1410 1409 1408 1406 1405 1404 1404 1404 1403 1402 1402 1402 1404 1405 1406
1441 1440 1440 1439 1438 1437 1437 1436 1435 1433 1432 1430 1429 1428 1427 1425 1423 1422 1420 1417 1415 1413 1412 1411 1410 1409 1408 1407 1406 1406 1404 1403 1402 1402 1402 1402 1401 1401 1401 1401 1402 1403 1404